Location: Alpino
(32.5215°N, 116.5815°W)
Time: 08:54:50
(UTC+00:00)

Cosmos 921 Rocket - Pass Details

Date: 13 April 2024
Orbit: 567 x 626 km, 75.8° (Epoch: 22 May)

Event Time Altitude Azimuth Distance (km) Brightness Sun altitude
Exits shadow 12:19:43 20° 257° (WSW) 1,379 4.2 -12.8°
Maximum altitude 12:21:21 25° 291° (WNW) 1,201 4.1 -12.5°
Drops below altitude 10° 12:24:52 10° 346° (NNW) 1,918 5.7 -11.8°
Sets 12:27:26 0° 0° (N) 2,834 6.7 -11.2°
